Hourly Weather Lukashovo

Today, 7 May, Friday

Time Temperature Precipitation Wind Pressure Humidity
00:00 +1°C° 0 mm 3 mps 738 mmHg 91%
01:00 +1°C° 0 mm 3 mps 737 mmHg 90%
02:00 +1°C° 0 mm 3 mps 737 mmHg 90%
03:00 +1°C° 0 mm 3 mps 737 mmHg 91%
04:00 +1°C° 0 mm 3 mps 737 mmHg 92%
05:00 +1°C° 0 mm 3 mps 737 mmHg 93%
06:00 +2°C° 0 mm 3 mps 738 mmHg 88%
07:00 +4°C° 0 mm 3 mps 738 mmHg 83%
08:00 +5°C° 0 mm 4 mps 738 mmHg 79%
09:00 +6°C° 0.1 mm 4 mps 738 mmHg 74%
10:00 +7°C° 0.1 mm 4 mps 738 mmHg 70%
11:00 +8°C° 0.1 mm 4 mps 738 mmHg 66%
12:00 +8°C° 0.5 mm 3 mps 738 mmHg 72%
13:00 +8°C° 0.5 mm 3 mps 738 mmHg 79%
14:00 +7°C° 0.5 mm 3 mps 737 mmHg 85%
15:00 +7°C° 1.1 mm 2 mps 737 mmHg 89%
16:00 +7°C° 1.1 mm 1 mps 737 mmHg 92%
17:00 +6°C° 1.1 mm 1 mps 736 mmHg 95%
18:00 +6°C° 0.8 mm 1 mps 736 mmHg 96%
19:00 +6°C° 0.8 mm 1 mps 736 mmHg 96%
20:00 +5°C° 0.8 mm 2 mps 736 mmHg 97%
21:00 +5°C° 0.1 mm 2 mps 736 mmHg 96%
22:00 +5°C° 0.1 mm 2 mps 736 mmHg 96%
23:00 +5°C° 0.1 mm 2 mps 736 mmHg 95%

Tomorrow, 8 May, Saturday

Time Temperature Precipitation Wind Pressure Humidity
00:00 +4°C° 0 mm 2 mps 736 mmHg 95%
01:00 +4°C° 0 mm 2 mps 737 mmHg 96%
02:00 +4°C° 0 mm 2 mps 737 mmHg 96%
03:00 +3°C° 0 mm 2 mps 737 mmHg 96%
04:00 +3°C° 0 mm 2 mps 737 mmHg 96%
05:00 +1°C° 0 mm 3 mps 737 mmHg 96%
06:00 +1°C° 0 mm 4 mps 738 mmHg 93%
07:00 +3°C° 0 mm 4 mps 738 mmHg 90%
08:00 +3°C° 0 mm 5 mps 739 mmHg 87%
09:00 +3°C° 0 mm 5 mps 739 mmHg 82%
10:00 +3°C° 0 mm 6 mps 740 mmHg 76%
11:00 +3°C° 0 mm 6 mps 740 mmHg 70%
12:00 +4°C° 0 mm 6 mps 740 mmHg 64%
13:00 +6°C° 0 mm 5 mps 741 mmHg 58%
14:00 +7°C° 0 mm 5 mps 741 mmHg 52%
15:00 +7°C° 0 mm 5 mps 741 mmHg 54%
16:00 +7°C° 0 mm 6 mps 742 mmHg 55%
17:00 +8°C° 0 mm 6 mps 742 mmHg 57%
18:00 +6°C° 0.2 mm 5 mps 742 mmHg 67%
19:00 +5°C° 0.2 mm 4 mps 743 mmHg 76%
20:00 +3°C° 0.2 mm 3 mps 743 mmHg 86%
21:00 +2°C° 0 mm 3 mps 744 mmHg 89%
22:00 +1°C° 0 mm 3 mps 744 mmHg 92%
23:00 +1°C° 0 mm 3 mps 745 mmHg 95%

Day after tomorrow, 9 May, Sunday

Time Temperature Precipitation Wind Pressure Humidity
00:00 0°C° 0 mm 3 mps 745 mmHg 95%
01:00 +1°C° 0 mm 2 mps 746 mmHg 94%
02:00 -1°C° 0 mm 2 mps 747 mmHg 94%
03:00 -1°C° 0 mm 2 mps 747 mmHg 94%
04:00 -1°C° 0 mm 2 mps 747 mmHg 94%
05:00 -1°C° 0 mm 2 mps 748 mmHg 94%
06:00 +2°C° 0 mm 2 mps 748 mmHg 89%
07:00 +4°C° 0 mm 2 mps 749 mmHg 83%
08:00 +5°C° 0 mm 3 mps 749 mmHg 78%
09:00 +7°C° 0 mm 3 mps 750 mmHg 70%
10:00 +9°C° 0 mm 3 mps 750 mmHg 62%
11:00 +10°C° 0 mm 4 mps 750 mmHg 54%
12:00 +11°C° 0 mm 4 mps 750 mmHg 51%
13:00 +12°C° 0 mm 4 mps 750 mmHg 48%
14:00 +12°C° 0 mm 4 mps 750 mmHg 45%
15:00 +12°C° 0 mm 4 mps 750 mmHg 48%
16:00 +12°C° 0 mm 4 mps 750 mmHg 50%
17:00 +12°C° 0 mm 4 mps 750 mmHg 53%
18:00 +11°C° 0 mm 4 mps 750 mmHg 59%
19:00 +9°C° 0 mm 3 mps 750 mmHg 65%
20:00 +8°C° 0 mm 3 mps 750 mmHg 70%
21:00 +8°C° 0 mm 3 mps 750 mmHg 69%
22:00 +7°C° 0 mm 4 mps 750 mmHg 68%
23:00 +7°C° 0 mm 4 mps 750 mmHg 67%

10 May, Monday

Time Temperature Precipitation Wind Pressure Humidity
00:00 +7°C° 0 mm 4 mps 751 mmHg 70%
01:00 +6°C° 0 mm 4 mps 751 mmHg 72%
02:00 +5°C° 0 mm 4 mps 751 mmHg 75%
03:00 +5°C° 0 mm 4 mps 751 mmHg 76%
04:00 +5°C° 0 mm 4 mps 751 mmHg 77%
05:00 +4°C° 0 mm 4 mps 752 mmHg 79%
06:00 +6°C° 0 mm 4 mps 752 mmHg 74%
07:00 +8°C° 0 mm 4 mps 752 mmHg 69%
08:00 +10°C° 0 mm 5 mps 752 mmHg 65%
09:00 +13°C° 0 mm 5 mps 752 mmHg 61%
10:00 +14°C° 0 mm 5 mps 753 mmHg 57%
11:00 +16°C° 0 mm 6 mps 753 mmHg 53%
12:00 +16°C° 0 mm 6 mps 753 mmHg 52%
13:00 +17°C° 0 mm 6 mps 752 mmHg 51%
14:00 +17°C° 0 mm 6 mps 752 mmHg 50%
15:00 +17°C° 0 mm 5 mps 752 mmHg 53%
16:00 +17°C° 0 mm 5 mps 752 mmHg 56%
17:00 +17°C° 0 mm 5 mps 752 mmHg 59%
18:00 +15°C° 0 mm 4 mps 752 mmHg 65%
19:00 +13°C° 0 mm 4 mps 752 mmHg 71%
20:00 +12°C° 0 mm 3 mps 752 mmHg 76%
21:00 +11°C° 0 mm 4 mps 752 mmHg 76%
22:00 +11°C° 0 mm 4 mps 752 mmHg 76%
23:00 +10°C° 0 mm 4 mps 752 mmHg 76%

11 May, Tuesday

Time Temperature Precipitation Wind Pressure Humidity
00:00 +10°C° 0 mm 4 mps 752 mmHg 76%
01:00 +8°C° 0 mm 4 mps 752 mmHg 77%
02:00 +8°C° 0 mm 4 mps 752 mmHg 77%
03:00 +7°C° 0 mm 4 mps 752 mmHg 78%
04:00 +7°C° 0 mm 4 mps 752 mmHg 79%
05:00 +7°C° 0 mm 4 mps 753 mmHg 80%
06:00 +8°C° 0 mm 5 mps 753 mmHg 75%
07:00 +10°C° 0 mm 5 mps 753 mmHg 70%
08:00 +13°C° 0 mm 6 mps 753 mmHg 64%
09:00 +14°C° 0 mm 6 mps 753 mmHg 59%
10:00 +15°C° 0 mm 6 mps 753 mmHg 53%
11:00 +17°C° 0 mm 6 mps 753 mmHg 48%
12:00 +17°C° 0 mm 6 mps 752 mmHg 47%
13:00 +19°C° 0 mm 6 mps 752 mmHg 47%
14:00 +20°C° 0 mm 6 mps 752 mmHg 46%
15:00 +19°C° 0 mm 6 mps 752 mmHg 50%
16:00 +19°C° 0 mm 5 mps 751 mmHg 54%
17:00 +19°C° 0 mm 5 mps 751 mmHg 57%
18:00 +16°C° 0 mm 5 mps 751 mmHg 63%
19:00 +14°C° 0 mm 4 mps 751 mmHg 70%
20:00 +13°C° 0 mm 4 mps 751 mmHg 76%
21:00 +12°C° 0 mm 4 mps 751 mmHg 77%
22:00 +11°C° 0 mm 4 mps 751 mmHg 79%
23:00 +11°C° 0 mm 4 mps 751 mmHg 80%

12 May, Wednesday

Time Temperature Precipitation Wind Pressure Humidity
00:00 +10°C° 0 mm 4 mps 751 mmHg 82%
01:00 +10°C° 0 mm 4 mps 751 mmHg 85%
02:00 +8°C° 0 mm 4 mps 750 mmHg 87%
03:00 +9°C° 0 mm 3 mps 750 mmHg 88%
04:00 +9°C° 0 mm 3 mps 750 mmHg 89%
05:00 +8°C° 0 mm 3 mps 750 mmHg 90%
06:00 +10°C° 0 mm 4 mps 750 mmHg 83%
07:00 +12°C° 0 mm 4 mps 750 mmHg 76%
08:00 +14°C° 0 mm 5 mps 750 mmHg 69%
09:00 +15°C° 0 mm 5 mps 750 mmHg 63%
10:00 +16°C° 0 mm 6 mps 750 mmHg 58%
11:00 +19°C° 0 mm 6 mps 750 mmHg 52%
12:00 +19°C° 0 mm 6 mps 749 mmHg 52%
13:00 +20°C° 0 mm 6 mps 749 mmHg 52%
14:00 +21°C° 0 mm 6 mps 748 mmHg 51%
15:00 +21°C° 0 mm 5 mps 748 mmHg 55%
16:00 +21°C° 0 mm 5 mps 748 mmHg 58%
17:00 +21°C° 0 mm 4 mps 748 mmHg 61%
18:00 +19°C° 0 mm 4 mps 747 mmHg 67%
19:00 +17°C° 0 mm 4 mps 747 mmHg 73%
20:00 +14°C° 0 mm 4 mps 747 mmHg 79%
21:00 +13°C° 0 mm 4 mps 747 mmHg 81%
22:00 +12°C° 0 mm 3 mps 747 mmHg 83%
23:00 +11°C° 0 mm 3 mps 747 mmHg 85%
Show more

We Need Your Consent

Meteoprog and our Service Providers may store and access personal data such as cookies, device identifiers or other similar technologies on your device and process such data to personalise content and ads, as well as provide social media features and to analyse the traffic.

  • Store and/or access information on your device

    Cookies, device identifiers or other information can be stored or accessed on your device for the purposes indicated above.

  • Personalised ads and content, ad and content measurement, audience insights, and products development

    Ads and content can be personalised based on a profile. More data can be added to better personalise ads and content. Ad and content performance can be measured. Insights about the audience who saw the ads and content can be derived. Such data can be used to develop or improve user’s experience, systems and software.

By clicking ‘I Agree’ you will allow the use of indicated cookies, device identifiers, web beacons or other similar technologies. Your settings can be changed in the browser on your device.

For certain purposes, legitimate interests may be relied on, rather than consent. You can read more about this in our Privacy and Cookie Policy.